Jordan Valley, OR

2:15 AM MDT on September 30, 2016 (GMT -0600)
Rome State

Weather History for KREO - March, 2014

Change the Weather History Date:

Monday, March 17, 2014

  Actual Average Record
Temperature  
Mean Temperature 41 °F 40 °F  
Max Temperature 56 °F 54 °F 75 °F (2007)
Min Temperature 25 °F 26 °F 15 °F (1965)
Degree Days  
Heating Degree Days 24 25  
Month to date heating degree days 338 450  
Since 1 July heating degree days 4760 5184  
Cooling Degree Days 0 0  
Month to date cooling degree days 0 0  
Year to date cooling degree days 0 0  
Moisture  
Dew Point 14 °F    
Average Humidity 48    
Maximum Humidity 76    
Minimum Humidity 19    
Precipitation  
Precipitation 0.00 in 0.04 in 0.88 in (1993)
Month to date precipitation 0.17 0.51  
Year to date precipitation 0.92 1.92  
Sea Level Pressure  
Sea Level Pressure 30.00 in    
Wind  
Wind Speed 18 mph (West)    
Max Wind Speed 44 mph    
Max Gust Speed 57 mph    
T = Trace of Precipitation, MM = Missing Value Source: NWS Daily Summary

Daily Weather History Graph

Daily Weather History Graph

Search for Another Location

Airport or City:

Trip Planner

Search our weather history database for the weather conditions in past years. The results will help you decide how hot, cold, wet, or windy it might be!

Date:

Astronomy

Mar. 17, 2014 Rise Set
Actual Time 6:59 AM PDT 7:00 PM PDT
Civil Twilight 6:31 AM PDT 7:28 PM PDT
Nautical Twilight 5:58 AM PDT 8:01 PM PDT
Astronomical Twilight 5:25 AM PDT 8:34 PM PDT
Moon 8:24 PM PDT (3/17) 7:16 AM PDT (3/17)
Length of Visible Light 12h 56m
Length of Day
12h 00m
Full, 99% of the Moon is Illuminated
Mar 17
Full
Mar 23
Last Quarter
Mar 30
New
Apr 7
First Quarter
Apr 15
Full

Hourly Weather History & Observations

Time (PDT) Temp. Windchill Dew Point Humidity Pressure Visibility Wind Dir Wind Speed Gust Speed Precip Events Conditions
12:52 AM 57.0 °F - 15.1 °F 19% 29.68 in - SSW 27.6 mph 39.1 mph N/A   Unknown
1:52 AM 55.9 °F - 17.1 °F 22% 29.68 in - SW 25.3 mph 40.3 mph N/A   Unknown
2:52 AM 55.0 °F - 15.1 °F 21% 29.68 in - SW 26.5 mph 46.0 mph N/A   Unknown
3:52 AM 42.1 °F 32.3 °F 36.0 °F 79% 29.77 in - SW 24.2 mph 33.4 mph N/A   Unknown
4:52 AM 41.0 °F 31.9 °F 30.0 °F 65% 29.78 in - WSW 19.6 mph 27.6 mph N/A   Unknown
5:52 AM 35.1 °F 23.5 °F 27.0 °F 72% 29.88 in - West 21.9 mph 29.9 mph N/A   Unknown
6:52 AM 34.0 °F 21.3 °F 21.0 °F 59% 29.94 in - West 25.3 mph 34.5 mph N/A   Unknown
7:52 AM 33.1 °F 23.4 °F 19.9 °F 59% 30.01 in - West 13.8 mph 24.2 mph N/A   Unknown
8:52 AM 36.0 °F 25.3 °F 19.9 °F 52% 30.03 in - West 19.6 mph 27.6 mph N/A   Unknown
9:52 AM 39.0 °F 29.9 °F 16.0 °F 39% 30.04 in - West 17.3 mph 27.6 mph N/A   Unknown
10:52 AM 39.9 °F 30.2 °F 12.0 °F 32% 30.06 in - West 20.7 mph 27.6 mph N/A   Unknown
11:52 AM 41.0 °F 31.1 °F 8.1 °F 26% 30.06 in - WNW 23.0 mph 39.1 mph N/A   Unknown
12:52 PM 44.1 °F 35.2 °F 8.1 °F 23% 30.05 in - West 23.0 mph 34.5 mph N/A   Unknown
1:52 PM 45.0 °F 36.6 °F 9.0 °F 23% 30.05 in - WNW 21.9 mph 36.8 mph N/A   Unknown
2:52 PM 44.1 °F 35.2 °F 8.1 °F 23% 30.05 in - NW 23.0 mph 32.2 mph N/A   Unknown
3:52 PM 46.9 °F - 8.1 °F 21% 30.07 in - WNW 19.6 mph 28.8 mph N/A   Unknown
4:52 PM 45.0 °F 37.9 °F 8.1 °F 22% 30.08 in - NW 16.1 mph 26.5 mph N/A   Unknown
5:52 PM 44.1 °F 35.9 °F 7.0 °F 22% 30.10 in - NW 19.6 mph 27.6 mph N/A   Unknown
6:52 PM 39.9 °F 33.4 °F 7.0 °F 26% 30.11 in - WNW 10.4 mph - N/A   Unknown
7:52 PM 37.0 °F 27.7 °F 8.1 °F 30% 30.13 in - West 16.1 mph 20.7 mph N/A   Unknown
8:52 PM 30.0 °F 22.4 °F 6.1 °F 36% 30.16 in - West 8.1 mph - N/A   Unknown
9:52 PM 28.0 °F 19.3 °F 7.0 °F 41% 30.17 in - West 9.2 mph - N/A   Unknown
10:52 PM 32.0 °F 24.2 °F 10.0 °F 40% 30.17 in - NW 9.2 mph - N/A   Unknown
11:52 PM 28.9 °F 21.1 °F 10.9 °F 47% 30.18 in - North 8.1 mph - N/A   Unknown